| time (UTC) | temp F | wind direction | speed MPH | gust MPH | rain 1hr in | rain 24hr in | rain mn in | humidity % | barometer mb |
| 20260506101737 | 56 | 47 | 10.0 | 20.0 | 0.00 | 0.00 | 0.00 | 52 | 1009.2 |
| 20260506100307 | 56 | 86 | 9.0 | 19.0 | 0.00 | 0.00 | 0.00 | 57 | 1009.3 |
| 20260506095306 | 56 | 26 | 12.0 | 23.0 | 0.00 | 0.00 | 0.00 | 56 | 1009.6 |
| 20260506094305 | 55 | 80 | 13.0 | 19.0 | 0.00 | 0.00 | 0.00 | 56 | 1009.4 |
| 20260506093320 | 55 | 327 | 9.0 | 22.0 | 0.00 | 0.00 | 0.00 | 57 | 1009.4 |
| 20260506092306 | 55 | 24 | 11.0 | 19.0 | 0.00 | 0.00 | 0.00 | 58 | 1009.4 |
| 20260506091306 | 54 | 46 | 10.0 | 20.0 | 0.00 | 0.00 | 0.00 | 58 | 1009.5 |
| 20260506090306 | 54 | 27 | 14.0 | 21.0 | 0.00 | 0.00 | 0.00 | 53 | 1009.4 |
| 20260506085306 | 55 | 27 | 7.0 | 17.0 | 0.00 | 0.00 | 0.00 | 60 | 1009.4 |
| 20260506084755 | 54 | 69 | 7.0 | 17.0 | 0.00 | 0.00 | 0.00 | 59 | 1009.3 |
| 20260506083306 | 54 | 34 | 8.0 | 17.0 | 0.00 | 0.00 | 0.00 | 60 | 1009.4 |
| 20260506082306 | 54 | 90 | 10.0 | 18.0 | 0.00 | 0.00 | 0.00 | 59 | 1009.3 |
| 20260506081305 | 54 | 46 | 7.0 | 17.0 | 0.00 | 0.00 | 0.00 | 60 | 1009.3 |
| 20260506080746 | 53 | 66 | 9.0 | 22.0 | 0.00 | 0.00 | 0.00 | 59 | 1009.3 |
| 20260506072306 | 52 | 68 | 8.0 | 19.0 | 0.00 | 0.00 | 0.00 | 57 | 1009.5 |
| 20260506071306 | 52 | 35 | 10.0 | 16.0 | 0.00 | 0.00 | 0.00 | 64 | 1009.4 |
| 20260506070306 | 51 | 62 | 9.0 | 18.0 | 0.00 | 0.00 | 0.00 | 60 | 1009.4 |
| 20260506062306 | 50 | 58 | 5.0 | 18.0 | 0.00 | 0.00 | 0.00 | 68 | 1009.3 |
| 20260506061306 | 50 | 40 | 8.0 | 18.0 | 0.00 | 0.00 | 0.00 | 68 | 1009.3 |
| 20260506060306 | 50 | 5 | 6.0 | 17.0 | 0.00 | 0.00 | 0.00 | 70 | 1009.3 |
| 20260506051306 | 46 | 28 | 4.0 | 9.0 | 0.00 | 0.00 | 0.00 | 80 | 1009.2 |
| 20260506050306 | 46 | 30 | 4.0 | 9.0 | 0.00 | 0.00 | 0.00 | 81 | 1009.2 |
| 20260506044305 | 44 | 5 | 4.0 | 7.0 | 0.00 | 0.00 | 0.00 | 82 | 1009.3 |
| 20260506043306 | 44 | 26 | 4.0 | 9.0 | 0.00 | 0.00 | 0.00 | 82 | 1009.3 |
| 20260506042306 | 44 | 18 | 3.0 | 5.0 | 0.00 | 0.00 | 0.00 | 83 | 1009.2 |
| 20260506041306 | 43 | 26 | 4.0 | 5.0 | 0.00 | 0.00 | 0.00 | 84 | 1009.3 |
| 20260506040306 | 42 | 18 | 3.0 | 5.0 | 0.00 | 0.00 | 0.00 | 86 | 1009.2 |
| 20260506035308 | 42 | 36 | 3.0 | 5.0 | 0.00 | 0.00 | 0.00 | 88 | 1009.3 |
| 20260506034321 | 41 | 46 | 2.0 | 3.0 | 0.00 | 0.00 | 0.00 | 88 | 1009.3 |
| 20260506033306 | 41 | 49 | 2.0 | 3.0 | 0.00 | 0.00 | 0.00 | 89 | 1009.2 |
| 20260506032318 | 40 | 49 | 0.0 | 2.0 | 0.00 | 0.00 | 0.00 | 89 | 1009.3 |
| 20260506031305 | 40 | 49 | 0.0 | 0.0 | 0.00 | 0.00 | 0.00 | 90 | 1009.3 |
| 20260506030750 | 40 | 49 | 0.0 | 0.0 | 0.00 | 0.00 | 0.00 | 90 | 1009.4 |
| 20260506025321 | 40 | 49 | 0.0 | 0.0 | 0.00 | 0.00 | 0.00 | 85 | 1009.4 |
| 20260506024305 | 40 | 49 | 0.0 | 0.0 | 0.00 | 0.00 | 0.00 | 90 | 1009.5 |
| 20260506023310 | 40 | 49 | 0.0 | 0.0 | 0.00 | 0.00 | 0.00 | 89 | 1009.5 |
| 20260506022306 | 41 | 49 | 0.0 | 0.0 | 0.00 | 0.00 | 0.00 | 89 | 1009.5 |
| 20260506021305 | 41 | 49 | 0.0 | 0.0 | 0.00 | 0.00 | 0.00 | 89 | 1009.5 |
| 20260506020307 | 41 | 49 | 0.0 | 0.0 | 0.00 | 0.00 | 0.00 | 90 | 1009.7 |
| 20260506015308 | 41 | 49 | 0.0 | 0.0 | 0.00 | 0.00 | 0.00 | 90 | 1009.7 |
| 20260506014307 | 42 | 49 | 0.0 | 1.0 | 0.00 | 0.00 | 0.00 | 90 | 1009.7 |
| 20260506013305 | 42 | 49 | 1.0 | 3.0 | 0.00 | 0.00 | 0.00 | 90 | 1009.8 |
| 20260506012308 | 42 | 50 | 0.0 | 0.0 | 0.00 | 0.00 | 0.00 | 90 | 1009.7 |
| 20260506011305 | 42 | 50 | 0.0 | 0.0 | 0.00 | 0.00 | 0.00 | 89 | 1009.8 |
| 20260506005752 | 42 | 50 | 0.0 | 0.0 | 0.00 | 0.00 | 0.00 | 89 | 1009.7 |
| 20260506004306 | 43 | 50 | 0.0 | 0.0 | 0.00 | 0.00 | 0.00 | 89 | 1009.8 |
| 20260506003307 | 43 | 50 | 0.0 | 0.0 | 0.00 | 0.00 | 0.00 | 89 | 1009.9 |
| 20260506002306 | 43 | 50 | 0.0 | 0.0 | 0.00 | 0.00 | 0.00 | 89 | 1009.9 |
| 20260506001306 | 43 | 50 | 0.0 | 0.0 | 0.00 | 0.00 | 0.00 | 90 | 1009.8 |
| 20260506000306 | 43 | 50 | 0.0 | 0.0 | 0.00 | 0.00 | 0.00 | 90 | 1009.9 |
| 20260505234309 | 43 | 50 | 0.0 | 0.0 | 0.00 | 0.00 | 0.00 | 89 | 1010.0 |
| 20260505233305 | 44 | 50 | 0.0 | 0.0 | 0.00 | 0.00 | 0.00 | 89 | 1010.1 |
| 20260505232306 | 44 | 50 | 0.0 | 0.0 | 0.00 | 0.00 | 0.00 | 90 | 1009.9 |
| 20260505231307 | 44 | 50 | 0.0 | 0.0 | 0.00 | 0.00 | 0.00 | 89 | 1010.0 |
| 20260505230306 | 44 | 50 | 0.0 | 0.0 | 0.00 | 0.00 | 0.00 | 89 | 1010.0 |
| 20260505225307 | 44 | 50 | 0.0 | 0.0 | 0.00 | 0.00 | 0.00 | 89 | 1010.0 |
| 20260505224310 | 44 | 50 | 0.0 | 0.0 | 0.00 | 0.00 | 0.00 | 88 | 1010.0 |
| 20260505223305 | 45 | 50 | 0.0 | 0.0 | 0.00 | 0.00 | 0.00 | 88 | 1010.1 |
| 20260505222307 | 45 | 50 | 0.0 | 0.0 | 0.00 | 0.00 | 0.00 | 87 | 1010.0 |
| 20260505221318 | 46 | 50 | 0.0 | 0.0 | 0.00 | 0.00 | 0.00 | 85 | 1010.1 |
| 20260505220328 | 47 | 50 | 0.0 | 0.0 | 0.00 | 0.00 | 0.00 | 85 | 1010.1 |
| 20260505215313 | 47 | 50 | 0.0 | 0.0 | 0.00 | 0.00 | 0.00 | 85 | 1010.2 |
| 20260505214313 | 47 | 50 | 1.0 | 3.0 | 0.00 | 0.00 | 0.00 | 85 | 1010.3 |
| 20260505213310 | 47 | 50 | 2.0 | 3.0 | 0.00 | 0.00 | 0.00 | 84 | 1010.3 |
| 20260505212311 | 47 | 50 | 0.0 | 0.0 | 0.00 | 0.00 | 0.00 | 83 | 1010.4 |
| 20260505211311 | 47 | 50 | 0.0 | 3.0 | 0.00 | 0.00 | 0.00 | 83 | 1010.4 |
| 20260505210311 | 47 | 50 | 0.0 | 2.0 | 0.00 | 0.00 | 0.00 | 82 | 1010.5 |
| 20260505205310 | 48 | 50 | 0.0 | 2.0 | 0.00 | 0.00 | 0.00 | 81 | 1010.5 |
| 20260505204810 | 48 | 50 | 1.0 | 3.0 | 0.00 | 0.00 | 0.00 | 81 | 1010.5 |
| 20260505203312 | 48 | 50 | 0.0 | 3.0 | 0.00 | 0.00 | 0.00 | 80 | 1010.5 |
| 20260505202310 | 49 | 50 | 2.0 | 4.0 | 0.00 | 0.00 | 0.00 | 80 | 1010.5 |
| 20260505201310 | 49 | 47 | 2.0 | 5.0 | 0.00 | 0.00 | 0.00 | 79 | 1010.5 |
| 20260505200311 | 49 | 55 | 3.0 | 7.0 | 0.00 | 0.00 | 0.00 | 78 | 1010.4 |
| 20260505195312 | 50 | 58 | 3.0 | 5.0 | 0.00 | 0.00 | 0.00 | 77 | 1010.4 |
| 20260505194747 | 50 | 71 | 2.0 | 5.0 | 0.00 | 0.00 | 0.00 | 76 | 1010.4 |
| 20260505193741 | 51 | 72 | 3.0 | 8.0 | 0.00 | 0.00 | 0.00 | 75 | 1010.3 |
| 20260505192757 | 51 | 63 | 2.0 | 7.0 | 0.00 | 0.00 | 0.00 | 74 | 1010.4 |
| 20260505191258 | 51 | 63 | 3.0 | 8.0 | 0.00 | 0.00 | 0.00 | 73 | 1010.2 |
| 20260505190259 | 51 | 82 | 2.0 | 10.0 | 0.00 | 0.00 | 0.00 | 73 | 1010.1 |
| 20260505185250 | 52 | 78 | 2.0 | 8.0 | 0.00 | 0.00 | 0.00 | 71 | 1010.1 |
| 20260505184245 | 52 | 52 | 3.0 | 7.0 | 0.00 | 0.00 | 0.00 | 70 | 1009.9 |
| 20260505183331 | 53 | 75 | 4.0 | 9.0 | 0.00 | 0.00 | 0.00 | 68 | 1010.0 |
| 20260505182332 | 53 | 81 | 4.0 | 10.0 | 0.00 | 0.00 | 0.00 | 66 | 1010.0 |
| 20260505181332 | 54 | 69 | 5.0 | 12.0 | 0.00 | 0.00 | 0.00 | 64 | 1010.1 |
| 20260505180333 | 54 | 51 | 5.0 | 12.0 | 0.00 | 0.00 | 0.00 | 62 | 1010.0 |
| 20260505175331 | 54 | 67 | 6.0 | 12.0 | 0.00 | 0.00 | 0.00 | 62 | 1010.1 |
| 20260505174331 | 55 | 28 | 7.0 | 13.0 | 0.00 | 0.00 | 0.00 | 60 | 1010.1 |
| 20260505173803 | 55 | 46 | 5.0 | 12.0 | 0.00 | 0.00 | 0.00 | 61 | 1010.0 |
| 20260505172331 | 55 | 44 | 8.0 | 13.0 | 0.00 | 0.00 | 0.00 | 60 | 1010.0 |
| 20260505171331 | 55 | 84 | 5.0 | 14.0 | 0.00 | 0.00 | 0.00 | 60 | 1010.1 |
| 20260505170333 | 56 | 13 | 8.0 | 13.0 | 0.00 | 0.00 | 0.00 | 59 | 1010.1 |
| 20260505165331 | 56 | 18 | 7.0 | 12.0 | 0.00 | 0.00 | 0.00 | 56 | 1010.2 |
| 20260505163331 | 57 | 59 | 8.0 | 13.0 | 0.00 | 0.00 | 0.00 | 65 | 1010.2 |
| 20260505162814 | 57 | 13 | 7.0 | 11.0 | 0.00 | 0.00 | 0.00 | 65 | 1010.3 |
| 20260505161331 | 58 | 25 | 6.0 | 14.0 | 0.00 | 0.00 | 0.00 | 63 | 1010.4 |
| 20260505160818 | 59 | 15 | 5.0 | 11.0 | 0.00 | 0.00 | 0.00 | 59 | 1010.3 |
| 20260505153333 | 57 | 67 | 4.0 | 10.0 | 0.00 | 0.00 | 0.00 | 66 | 1010.5 |
| 20260505152331 | 57 | 36 | 4.0 | 9.0 | 0.00 | 0.00 | 0.00 | 65 | 1010.4 |
| 20260505151331 | 57 | 57 | 5.0 | 9.0 | 0.00 | 0.00 | 0.00 | 60 | 1010.4 |
| 20260505150818 | 57 | 40 | 5.0 | 10.0 | 0.00 | 0.00 | 0.00 | 66 | 1010.4 |
| 20260505140331 | 57 | 87 | 7.0 | 13.0 | 0.00 | 0.00 | 0.00 | 62 | 1010.7 |
| 20260505124332 | 57 | 80 | 4.0 | 12.0 | 0.00 | 0.00 | 0.00 | 65 | 1011.0 |
| 20260505123810 | 59 | 30 | 6.0 | 13.0 | 0.00 | 0.00 | 0.00 | 61 | 1011.1 |
| 20260505122331 | 58 | 45 | 4.0 | 13.0 | 0.00 | 0.00 | 0.00 | 58 | 1011.1 |
| 20260505120332 | 58 | 67 | 6.0 | 17.0 | 0.00 | 0.00 | 0.00 | 63 | 1011.1 |
| 20260505115331 | 58 | 69 | 7.0 | 14.0 | 0.00 | 0.00 | 0.00 | 62 | 1011.1 |
| 20260505114333 | 58 | 26 | 6.0 | 14.0 | 0.00 | 0.00 | 0.00 | 64 | 1011.1 |
| 20260505113332 | 58 | 75 | 9.0 | 16.0 | 0.00 | 0.00 | 0.00 | 63 | 1011.2 |
| 20260505112332 | 58 | 329 | 6.0 | 14.0 | 0.00 | 0.00 | 0.00 | 61 | 1011.1 |
| 20260505111331 | 56 | 67 | 9.0 | 12.0 | 0.00 | 0.00 | 0.00 | 68 | 1011.2 |
| 20260505110817 | 56 | 61 | 3.0 | 12.0 | 0.00 | 0.00 | 0.00 | 69 | 1011.2 |